contact:dominique.lefevre@mio.osupytheas.fr, maurice.libes@osupytheas.fr, didier.mallarino@osupytheas.fr
Project:EMSO http://www.emso-fr.org/EMSO-France
Depth: 2436.0 m
Title:EMSO Ligure Ouest : Data MII capteur MICROCAT
DateTime_Computer,Latitude,Longitude,Temperature,Conductivity,Pressure,DateTime_Instrument
DateTime_Computer,Latitude,Longitude,degC,S m-1,dbar,DateTime_Instrument
2021-05-01T00:01:28Z,42.805,6.029,13.2980,4.59988,2470.217,2021-5-01T02:02:38Z
2021-05-01T00:04:31Z,42.805,6.029,13.2980,4.59988,2470.18,2021-5-01T02:05:41Z
2021-05-01T00:07:34Z,42.805,6.029,13.2979,4.59987,2470.18,2021-5-01T02:08:44Z
2021-05-01T00:10:38Z,42.805,6.029,13.2982,4.59989,2470.18,2021-5-01T02:11:47Z
2021-05-01T00:13:41Z,42.805,6.029,13.2982,4.59987,2470.166,2021-5-01T02:14:51Z
2021-05-01T00:16:44Z,42.805,6.029,13.2979,4.59987,2470.18,2021-5-01T02:17:54Z
2021-05-01T00:19:47Z,42.805,6.029,13.2983,4.59988,2470.147,2021-5-01T02:20:57Z
2021-05-01T00:22:50Z,42.805,6.029,13.2979,4.59990,2470.156,2021-5-01T02:24:00Z
2021-05-01T00:25:53Z,42.805,6.029,13.2976,4.59986,2470.194,2021-5-01T02:27:03Z
2021-05-01T00:28:56Z,42.805,6.029,13.2983,4.59968,2470.18,2021-5-01T02:30:06Z
2021-05-01T00:31:59Z,42.805,6.029,13.2979,4.59988,2470.156,2021-5-01T02:33:09Z
2021-05-01T00:35:03Z,42.805,6.029,13.2976,4.59989,2470.18,2021-5-01T02:36:12Z
2021-05-01T00:38:06Z,42.805,6.029,13.2979,4.59987,2470.147,2021-5-01T02:39:16Z
2021-05-01T00:41:09Z,42.805,6.029,13.2979,4.59986,2470.133,2021-5-01T02:42:19Z
2021-05-01T00:44:12Z,42.805,6.029,13.2982,4.59988,2470.156,2021-5-01T02:45:22Z
2021-05-01T00:47:15Z,42.805,6.029,13.2984,4.59988,2470.133,2021-5-01T02:48:25Z
2021-05-01T00:50:18Z,42.805,6.029,13.2979,4.59987,2470.143,2021-5-01T02:51:28Z
2021-05-01T00:53:21Z,42.805,6.029,13.2979,4.59986,2470.133,2021-5-01T02:54:31Z
2021-05-01T00:56:24Z,42.805,6.029,13.2979,4.59986,2470.124,2021-5-01T02:57:34Z
2021-05-01T00:59:27Z,42.805,6.029,13.2981,4.59987,2470.147,2021-5-01T03:00:37Z
2021-05-01T01:02:31Z,42.805,6.029,13.2978,4.59987,2470.147,2021-5-01T03:03:40Z
2021-05-01T01:05:34Z,42.805,6.029,13.2975,4.59987,2470.124,2021-5-01T03:06:44Z
2021-05-01T01:08:37Z,42.805,6.029,13.2976,4.59986,2470.124,2021-5-01T03:09:47Z
2021-05-01T01:11:40Z,42.805,6.029,13.2980,4.59988,2470.133,2021-5-01T03:12:50Z
2021-05-01T01:14:43Z,42.805,6.029,13.2976,4.59986,2470.133,2021-5-01T03:15:53Z
2021-05-01T01:17:46Z,42.805,6.029,13.2979,4.59986,2470.124,2021-5-01T03:18:56Z
2021-05-01T01:20:49Z,42.805,6.029,13.2979,4.59988,2470.11,2021-5-01T03:21:59Z
2021-05-01T01:23:52Z,42.805,6.029,13.2978,4.59987,2470.133,2021-5-01T03:25:02Z
2021-05-01T01:26:56Z,42.805,6.029,13.2980,4.59986,2470.11,2021-5-01T03:28:05Z
2021-05-01T01:29:59Z,42.805,6.029,13.2982,4.59988,2470.133,2021-5-01T03:31:08Z
2021-05-01T01:33:02Z,42.805,6.029,13.2980,4.59986,2470.087,2021-5-01T03:34:12Z
2021-05-01T01:36:05Z,42.805,6.029,13.2982,4.59986,2470.124,2021-5-01T03:37:15Z
2021-05-01T01:39:08Z,42.805,6.029,13.2982,4.59986,2470.087,2021-5-01T03:40:18Z
2021-05-01T01:42:11Z,42.805,6.029,13.2980,4.59987,2470.147,2021-5-01T03:43:21Z
2021-05-01T01:45:14Z,42.805,6.029,13.2979,4.59988,2470.124,2021-5-01T03:46:24Z
2021-05-01T01:48:17Z,42.805,6.029,13.2979,4.59988,2470.124,2021-5-01T03:49:27Z
2021-05-01T01:51:20Z,42.805,6.029,13.2981,4.59986,2470.11,2021-5-01T03:52:30Z
2021-05-01T01:54:24Z,42.805,6.029,13.2979,4.59986,2470.063,2021-5-01T03:55:33Z
2021-05-01T01:57:27Z,42.805,6.029,13.2981,4.59988,2470.087,2021-5-01T03:58:37Z
2021-05-01T02:00:30Z,42.805,6.029,13.2980,4.59986,2470.087,2021-5-01T04:01:40Z
2021-05-01T02:03:33Z,42.805,6.029,13.2980,4.59988,2470.087,2021-5-01T04:04:43Z
2021-05-01T02:06:36Z,42.805,6.029,13.2981,4.59987,2470.1,2021-5-01T04:07:46Z
2021-05-01T02:09:39Z,42.805,6.029,13.2982,4.59989,2470.049,2021-5-01T04:10:49Z
2021-05-01T02:12:42Z,42.805,6.029,13.2980,4.59987,2470.077,2021-5-01T04:13:52Z
2021-05-01T02:15:45Z,42.805,6.029,13.2978,4.59986,2470.063,2021-5-01T04:16:55Z
2021-05-01T02:18:49Z,42.805,6.029,13.2986,4.59988,2470.087,2021-5-01T04:19:58Z
2021-05-01T02:21:52Z,42.805,6.029,13.2982,4.59986,2470.063,2021-5-01T04:23:02Z
2021-05-01T02:24:55Z,42.805,6.029,13.2980,4.59986,2470.026,2021-5-01T04:26:05Z
2021-05-01T02:27:58Z,42.805,6.029,13.2979,4.59987,2470.1,2021-5-01T04:29:08Z
2021-05-01T02:31:01Z,42.805,6.029,13.2980,4.59986,2470.063,2021-5-01T04:32:11Z
2021-05-01T02:34:04Z,42.805,6.029,13.2982,4.59986,2470.087,2021-5-01T04:35:14Z
2021-05-01T02:37:07Z,42.805,6.029,13.2979,4.59986,2470.063,2021-5-01T04:38:17Z
2021-05-01T02:40:10Z,42.805,6.029,13.2979,4.59986,2470.04,2021-5-01T04:41:20Z
2021-05-01T02:43:13Z,42.805,6.029,13.2980,4.59986,2470.087,2021-5-01T04:44:23Z
2021-05-01T02:46:17Z,42.805,6.029,13.2979,4.59987,2470.063,2021-5-01T04:47:26Z
2021-05-01T02:49:20Z,42.805,6.029,13.2979,4.59986,2470.063,2021-5-01T04:50:30Z
2021-05-01T02:52:23Z,42.805,6.029,13.2982,4.59987,2470.03,2021-5-01T04:53:33Z
2021-05-01T02:55:26Z,42.805,6.029,13.2979,4.59986,2470.077,2021-5-01T04:56:36Z
2021-05-01T02:58:29Z,42.805,6.029,13.2979,4.59986,2470.077,2021-5-01T04:59:39Z
2021-05-01T03:01:32Z,42.805,6.029,13.2981,4.59987,2470.04,2021-5-01T05:02:42Z
2021-05-01T03:04:35Z,42.805,6.029,13.2981,4.59986,2470.077,2021-5-01T05:05:45Z
2021-05-01T03:07:38Z,42.805,6.029,13.2981,4.59987,2470.03,2021-5-01T05:08:48Z
2021-05-01T03:10:42Z,42.805,6.029,13.2979,4.59986,2470.04,2021-5-01T05:11:51Z
2021-05-01T03:13:45Z,42.805,6.029,13.2983,4.59987,2470.04,2021-5-01T05:14:55Z
2021-05-01T03:16:48Z,42.805,6.029,13.2980,4.59988,2470.017,2021-5-01T05:17:58Z
2021-05-01T03:19:51Z,42.805,6.029,13.2979,4.59986,2470.017,2021-5-01T05:21:01Z
2021-05-01T03:22:54Z,42.805,6.029,13.2983,4.59986,2470.03,2021-5-01T05:24:04Z
2021-05-01T03:25:57Z,42.805,6.029,13.2979,4.59986,2470.04,2021-5-01T05:27:07Z
2021-05-01T03:29:00Z,42.805,6.029,13.2982,4.59986,2470.017,2021-5-01T05:30:10Z
2021-05-01T03:32:03Z,42.805,6.029,13.2981,4.59986,2470.017,2021-5-01T05:33:13Z
2021-05-01T03:35:06Z,42.805,6.029,13.2973,4.59986,2470.03,2021-5-01T05:36:16Z
2021-05-01T03:38:10Z,42.805,6.029,13.2982,4.59986,2470.04,2021-5-01T05:39:19Z
2021-05-01T03:41:13Z,42.805,6.029,13.2980,4.59986,2470.04,2021-5-01T05:42:23Z
2021-05-01T03:44:16Z,42.805,6.029,13.2980,4.59986,2470.003,2021-5-01T05:45:26Z
2021-05-01T03:47:19Z,42.805,6.029,13.2980,4.59986,2470.053,2021-5-01T05:48:29Z
2021-05-01T03:50:22Z,42.805,6.029,13.2979,4.59986,2470.03,2021-5-01T05:51:32Z
2021-05-01T03:53:25Z,42.805,6.029,13.2982,4.59987,2469.993,2021-5-01T05:54:35Z
2021-05-01T03:56:28Z,42.805,6.029,13.2979,4.59986,2469.97,2021-5-01T05:57:38Z
2021-05-01T03:59:31Z,42.805,6.029,13.2977,4.59986,2470.03,2021-5-01T06:00:41Z
2021-05-01T04:02:35Z,42.805,6.029,13.2980,4.59985,2470.03,2021-5-01T06:03:44Z
2021-05-01T04:05:38Z,42.805,6.029,13.2982,4.59986,2469.97,2021-5-01T06:06:48Z
2021-05-01T04:08:41Z,42.805,6.029,13.2979,4.59986,2469.993,2021-5-01T06:09:51Z
2021-05-01T04:11:44Z,42.805,6.029,13.2978,4.59986,2470.007,2021-5-01T06:12:54Z
2021-05-01T04:14:47Z,42.805,6.029,13.2980,4.59986,2469.984,2021-5-01T06:15:57Z
2021-05-01T04:17:50Z,42.805,6.029,13.2979,4.59986,2469.97,2021-5-01T06:19:00Z
2021-05-01T04:20:53Z,42.805,6.029,13.2976,4.59986,2470.007,2021-5-01T06:22:03Z
2021-05-01T04:23:56Z,42.805,6.029,13.2985,4.59986,2469.947,2021-5-01T06:25:06Z
2021-05-01T04:26:59Z,42.805,6.029,13.2982,4.59985,2469.97,2021-5-01T06:28:09Z
2021-05-01T04:30:03Z,42.805,6.029,13.2979,4.59986,2469.97,2021-5-01T06:31:12Z
2021-05-01T04:33:06Z,42.805,6.029,13.2979,4.59985,2469.96,2021-5-01T06:34:16Z
2021-05-01T04:36:09Z,42.805,6.029,13.2983,4.59987,2469.984,2021-5-01T06:37:19Z
2021-05-01T04:39:12Z,42.805,6.029,13.2979,4.59986,2469.97,2021-5-01T06:40:22Z
2021-05-01T04:42:15Z,42.805,6.029,13.2980,4.59986,2469.97,2021-5-01T06:43:25Z
2021-05-01T04:45:18Z,42.805,6.029,13.2982,4.59986,2469.984,2021-5-01T06:46:28Z
2021-05-01T04:48:21Z,42.805,6.029,13.2982,4.59986,2469.97,2021-5-01T06:49:31Z
2021-05-01T04:51:24Z,42.805,6.029,13.2982,4.59986,2469.97,2021-5-01T06:52:34Z
2021-05-01T04:54:28Z,42.805,6.029,13.2979,4.59986,2469.984,2021-5-01T06:55:37Z
2021-05-01T04:57:31Z,42.805,6.029,13.2982,4.59986,2469.993,2021-5-01T06:58:41Z
2021-05-01T05:00:34Z,42.805,6.029,13.2982,4.59987,2469.984,2021-5-01T07:01:44Z
2021-05-01T05:03:37Z,42.805,6.029,13.2982,4.59986,2469.97,2021-5-01T07:04:47Z
2021-05-01T05:06:40Z,42.805,6.029,13.2977,4.59986,2469.947,2021-5-01T07:07:50Z
2021-05-01T05:09:43Z,42.805,6.029,13.2978,4.59986,2469.97,2021-5-01T07:10:53Z
2021-05-01T05:12:46Z,42.805,6.029,13.2979,4.59986,2469.97,2021-5-01T07:13:56Z
2021-05-01T05:15:49Z,42.805,6.029,13.2983,4.59986,2469.97,2021-5-01T07:16:59Z
2021-05-01T05:18:52Z,42.805,6.029,13.2979,4.59986,2469.97,2021-5-01T07:20:02Z
2021-05-01T05:21:56Z,42.805,6.029,13.2982,4.59986,2469.96,2021-5-01T07:23:05Z
2021-05-01T05:24:59Z,42.805,6.029,13.2979,4.59986,2469.97,2021-5-01T07:26:09Z
2021-05-01T05:28:02Z,42.805,6.029,13.2983,4.59986,2470.007,2021-5-01T07:29:12Z
2021-05-01T05:31:05Z,42.805,6.029,13.2981,4.59986,2469.96,2021-5-01T07:32:15Z
2021-05-01T05:34:08Z,42.805,6.029,13.2982,4.59986,2469.97,2021-5-01T07:35:18Z
2021-05-01T05:37:11Z,42.805,6.029,13.2983,4.59986,2469.937,2021-5-01T07:38:21Z
2021-05-01T05:40:14Z,42.805,6.029,13.2982,4.59986,2469.947,2021-5-01T07:41:24Z
2021-05-01T05:43:17Z,42.805,6.029,13.2982,4.59986,2469.947,2021-5-01T07:44:27Z
2021-05-01T05:46:21Z,42.805,6.029,13.2981,4.59986,2469.984,2021-5-01T07:47:30Z
2021-05-01T05:49:24Z,42.805,6.029,13.2980,4.59986,2469.96,2021-5-01T07:50:34Z
2021-05-01T05:52:27Z,42.805,6.029,13.2982,4.59986,2469.96,2021-5-01T07:53:37Z
2021-05-01T05:55:30Z,42.805,6.029,13.2980,4.59986,2469.947,2021-5-01T07:56:40Z
2021-05-01T05:58:33Z,42.805,6.029,13.2976,4.59985,2469.96,2021-5-01T07:59:43Z
2021-05-01T06:01:36Z,42.805,6.029,13.2977,4.59986,2469.947,2021-5-01T08:02:46Z
2021-05-01T06:04:39Z,42.805,6.029,13.2977,4.59986,2469.923,2021-5-01T08:05:49Z
2021-05-01T06:07:42Z,42.805,6.029,13.2982,4.59986,2469.937,2021-5-01T08:08:52Z
2021-05-01T06:10:46Z,42.805,6.029,13.2982,4.59986,2469.937,2021-5-01T08:11:55Z
2021-05-01T06:13:49Z,42.805,6.029,13.2979,4.59986,2469.876,2021-5-01T08:14:59Z
2021-05-01T06:16:52Z,42.805,6.029,13.2979,4.59987,2469.947,2021-5-01T08:18:02Z
2021-05-01T06:19:55Z,42.805,6.029,13.2979,4.59986,2469.947,2021-5-01T08:21:05Z
2021-05-01T06:22:58Z,42.805,6.029,13.2979,4.59986,2469.937,2021-5-01T08:24:08Z
2021-05-01T06:26:01Z,42.805,6.029,13.2982,4.59986,2469.947,2021-5-01T08:27:11Z
2021-05-01T06:29:04Z,42.805,6.029,13.2976,4.59986,2469.923,2021-5-01T08:30:14Z
2021-05-01T06:32:07Z,42.805,6.029,13.2982,4.59986,2469.914,2021-5-01T08:33:17Z
2021-05-01T06:35:10Z,42.805,6.029,13.2983,4.59986,2469.947,2021-5-01T08:36:20Z
2021-05-01T06:38:14Z,42.805,6.029,13.2980,4.59986,2469.984,2021-5-01T08:39:23Z
2021-05-01T06:41:17Z,42.805,6.029,13.2982,4.59987,2469.984,2021-5-01T08:42:27Z
2021-05-01T06:44:20Z,42.805,6.029,13.2977,4.59986,2469.947,2021-5-01T08:45:30Z
2021-05-01T06:47:23Z,42.805,6.029,13.2981,4.59987,2469.947,2021-5-01T08:48:33Z
2021-05-01T06:50:26Z,42.805,6.029,13.2979,4.59986,2469.96,2021-5-01T08:51:36Z
2021-05-01T06:53:29Z,42.805,6.029,13.2980,4.59985,2469.923,2021-5-01T08:54:39Z
2021-05-01T06:56:32Z,42.805,6.029,13.2982,4.59988,2469.984,2021-5-01T08:57:42Z
2021-05-01T06:59:35Z,42.805,6.029,13.2982,4.59986,2469.923,2021-5-01T09:00:45Z
2021-05-01T07:02:39Z,42.805,6.029,13.2980,4.59986,2469.947,2021-5-01T09:03:48Z
2021-05-01T07:05:42Z,42.805,6.029,13.2983,4.59986,2469.97,2021-5-01T09:06:52Z
2021-05-01T07:08:45Z,42.805,6.029,13.2977,4.59986,2469.96,2021-5-01T09:09:55Z
2021-05-01T07:11:48Z,42.805,6.029,13.2981,4.59986,2469.97,2021-5-01T09:12:58Z
2021-05-01T07:14:51Z,42.805,6.029,13.2979,4.59986,2469.984,2021-5-01T09:16:01Z
2021-05-01T07:17:54Z,42.805,6.029,13.2982,4.59986,2470.007,2021-5-01T09:19:04Z
2021-05-01T07:20:57Z,42.805,6.029,13.2985,4.59986,2469.947,2021-5-01T09:22:07Z
2021-05-01T07:24:00Z,42.805,6.029,13.2978,4.59986,2469.97,2021-5-01T09:25:10Z
2021-05-01T07:27:03Z,42.805,6.029,13.2979,4.59986,2469.97,2021-5-01T09:28:13Z
2021-05-01T07:30:07Z,42.805,6.029,13.2977,4.59986,2469.947,2021-5-01T09:31:16Z
2021-05-01T07:33:10Z,42.805,6.029,13.2981,4.59987,2469.96,2021-5-01T09:34:20Z
2021-05-01T07:36:13Z,42.805,6.029,13.2979,4.59987,2470.007,2021-5-01T09:37:23Z
2021-05-01T07:39:16Z,42.805,6.029,13.2984,4.59986,2469.947,2021-5-01T09:40:26Z
2021-05-01T07:42:19Z,42.805,6.029,13.2983,4.59986,2469.947,2021-5-01T09:43:29Z
2021-05-01T07:45:22Z,42.805,6.029,13.2981,4.59986,2469.993,2021-5-01T09:46:32Z
2021-05-01T07:48:25Z,42.805,6.029,13.2982,4.59986,2470.007,2021-5-01T09:49:35Z
2021-05-01T07:51:28Z,42.805,6.029,13.2980,4.59986,2470.017,2021-5-01T09:52:38Z
2021-05-01T07:54:32Z,42.805,6.029,13.2978,4.59986,2470.017,2021-5-01T09:55:41Z
2021-05-01T07:57:35Z,42.805,6.029,13.2982,4.59986,2469.993,2021-5-01T09:58:45Z
2021-05-01T08:00:38Z,42.805,6.029,13.2978,4.59986,2470.007,2021-5-01T10:01:48Z
2021-05-01T08:03:41Z,42.805,6.029,13.2982,4.59986,2469.984,2021-5-01T10:04:51Z
2021-05-01T08:06:44Z,42.805,6.029,13.2977,4.59987,2469.984,2021-5-01T10:07:54Z
2021-05-01T08:09:47Z,42.805,6.029,13.2983,4.59986,2469.993,2021-5-01T10:10:57Z
2021-05-01T08:12:50Z,42.805,6.029,13.2982,4.59986,2470.017,2021-5-01T10:14:00Z
2021-05-01T08:15:53Z,42.805,6.029,13.2982,4.59987,2469.993,2021-5-01T10:17:03Z
2021-05-01T08:18:57Z,42.805,6.029,13.2980,4.59986,2469.984,2021-5-01T10:20:06Z
2021-05-01T08:22:00Z,42.805,6.029,13.2978,4.59986,2470.017,2021-5-01T10:23:10Z
2021-05-01T08:25:03Z,42.805,6.029,13.2979,4.59986,2469.993,2021-5-01T10:26:13Z
2021-05-01T08:28:06Z,42.805,6.029,13.2982,4.59986,2470.017,2021-5-01T10:29:16Z
2021-05-01T08:31:09Z,42.805,6.029,13.2982,4.59986,2470.04,2021-5-01T10:32:19Z
2021-05-01T08:34:12Z,42.805,6.029,13.2982,4.59986,2470.007,2021-5-01T10:35:22Z
2021-05-01T08:37:15Z,42.805,6.029,13.2980,4.59987,2470.017,2021-5-01T10:38:25Z
2021-05-01T08:40:18Z,42.805,6.029,13.2980,4.59988,2469.97,2021-5-01T10:41:28Z
2021-05-01T08:43:22Z,42.805,6.029,13.2979,4.59986,2470.017,2021-5-01T10:44:31Z
2021-05-01T08:46:25Z,42.805,6.029,13.2980,4.59986,2470.063,2021-5-01T10:47:35Z
2021-05-01T08:49:28Z,42.805,6.029,13.2982,4.59986,2470.017,2021-5-01T10:50:38Z
2021-05-01T08:52:31Z,42.805,6.029,13.2982,4.59986,2469.979,2021-5-01T10:53:41Z
2021-05-01T08:55:34Z,42.805,6.029,13.2974,4.59987,2470.017,2021-5-01T10:56:44Z
2021-05-01T08:58:37Z,42.805,6.029,13.2982,4.59986,2470.017,2021-5-01T10:59:47Z
2021-05-01T09:01:40Z,42.805,6.029,13.2981,4.59987,2470.007,2021-5-01T11:02:50Z
2021-05-01T09:04:43Z,42.805,6.029,13.2982,4.59987,2470.03,2021-5-01T11:05:53Z
2021-05-01T09:07:47Z,42.805,6.029,13.2983,4.59986,2470.077,2021-5-01T11:08:56Z
2021-05-01T09:10:50Z,42.805,6.029,13.2980,4.59986,2470.04,2021-5-01T11:12:00Z
2021-05-01T09:13:53Z,42.805,6.029,13.2982,4.59987,2470.04,2021-5-01T11:15:03Z
2021-05-01T09:16:56Z,42.805,6.029,13.2982,4.59986,2470.063,2021-5-01T11:18:06Z
2021-05-01T09:19:59Z,42.805,6.029,13.2981,4.59986,2470.017,2021-5-01T11:21:09Z
2021-05-01T09:23:02Z,42.805,6.029,13.2977,4.59986,2470.053,2021-5-01T11:24:12Z
2021-05-01T09:26:05Z,42.805,6.029,13.2982,4.59986,2470.017,2021-5-01T11:27:15Z
2021-05-01T09:29:08Z,42.805,6.029,13.2979,4.59986,2470.04,2021-5-01T11:30:18Z
2021-05-01T09:32:11Z,42.805,6.029,13.2983,4.59986,2470.026,2021-5-01T11:33:21Z
2021-05-01T09:35:15Z,42.805,6.029,13.2982,4.59986,2470.04,2021-5-01T11:36:25Z
2021-05-01T09:38:18Z,42.805,6.029,13.2979,4.59986,2470.017,2021-5-01T11:39:28Z
2021-05-01T09:41:21Z,42.805,6.029,13.2981,4.59986,2470.063,2021-5-01T11:42:31Z
2021-05-01T09:44:24Z,42.805,6.029,13.2980,4.59986,2470.03,2021-5-01T11:45:34Z
2021-05-01T09:47:27Z,42.805,6.029,13.2981,4.59986,2470.017,2021-5-01T11:48:37Z
2021-05-01T09:50:30Z,42.805,6.029,13.2977,4.59986,2470.017,2021-5-01T11:51:40Z
2021-05-01T09:53:33Z,42.805,6.029,13.2980,4.59987,2470.04,2021-5-01T11:54:43Z
2021-05-01T09:56:37Z,42.805,6.029,13.2979,4.59988,2470.053,2021-5-01T11:57:46Z
2021-05-01T09:59:40Z,42.805,6.029,13.2981,4.59985,2470.04,2021-5-01T12:00:50Z
2021-05-01T10:02:43Z,42.805,6.029,13.2977,4.59986,2470.04,2021-5-01T12:03:53Z
2021-05-01T10:05:46Z,42.805,6.029,13.2979,4.59987,2470.03,2021-5-01T12:06:56Z
2021-05-01T10:08:49Z,42.805,6.029,13.2982,4.59986,2470.03,2021-5-01T12:09:59Z
2021-05-01T10:11:52Z,42.805,6.029,13.2980,4.59986,2470.053,2021-5-01T12:13:02Z
2021-05-01T10:14:55Z,42.805,6.029,13.2978,4.59986,2470.03,2021-5-01T12:16:05Z
2021-05-01T10:17:58Z,42.805,6.029,13.2980,4.59987,2470.017,2021-5-01T12:19:08Z
2021-05-01T10:21:01Z,42.805,6.029,13.2983,4.59985,2470.053,2021-5-01T12:22:11Z
2021-05-01T10:24:05Z,42.805,6.029,13.2979,4.59988,2470.017,2021-5-01T12:25:14Z
2021-05-01T10:27:08Z,42.805,6.029,13.2980,4.59985,2470.04,2021-5-01T12:28:18Z
2021-05-01T10:30:11Z,42.805,6.029,13.2983,4.59986,2470.017,2021-5-01T12:31:21Z
2021-05-01T10:33:14Z,42.805,6.029,13.2977,4.59986,2470.007,2021-5-01T12:34:24Z
2021-05-01T10:36:17Z,42.805,6.029,13.2982,4.59987,2470.04,2021-5-01T12:37:27Z
2021-05-01T10:39:20Z,42.805,6.029,13.2982,4.59988,2470.017,2021-5-01T12:40:30Z
2021-05-01T10:42:23Z,42.805,6.029,13.2980,4.59986,2470.053,2021-5-01T12:43:33Z
2021-05-01T10:45:26Z,42.805,6.029,13.2980,4.59985,2470.017,2021-5-01T12:46:36Z
2021-05-01T10:48:30Z,42.805,6.029,13.2979,4.59986,2470.04,2021-5-01T12:49:39Z
2021-05-01T10:51:33Z,42.805,6.029,13.2981,4.59985,2470.053,2021-5-01T12:52:43Z
2021-05-01T10:54:36Z,42.805,6.029,13.2982,4.59986,2470.017,2021-5-01T12:55:46Z
2021-05-01T10:57:39Z,42.805,6.029,13.2979,4.59986,2470.026,2021-5-01T12:58:49Z
2021-05-01T11:00:42Z,42.805,6.029,13.2980,4.59986,2470.04,2021-5-01T13:01:52Z
2021-05-01T11:03:45Z,42.805,6.029,13.2979,4.59986,2470.017,2021-5-01T13:04:55Z
2021-05-01T11:06:48Z,42.805,6.029,13.2979,4.59986,2470.04,2021-5-01T13:07:58Z
2021-05-01T11:09:51Z,42.805,6.029,13.2979,4.59986,2470.04,2021-5-01T13:11:01Z
2021-05-01T11:12:55Z,42.805,6.029,13.2979,4.59986,2470.077,2021-5-01T13:14:04Z
2021-05-01T11:15:58Z,42.805,6.029,13.2981,4.59986,2470.03,2021-5-01T13:17:08Z
2021-05-01T11:19:01Z,42.805,6.029,13.2983,4.59985,2470.017,2021-5-01T13:20:11Z
2021-05-01T11:22:04Z,42.805,6.029,13.2980,4.59986,2470.04,2021-5-01T13:23:14Z
2021-05-01T11:25:07Z,42.805,6.029,13.2983,4.59986,2470.017,2021-5-01T13:26:17Z
2021-05-01T11:28:10Z,42.805,6.029,13.2978,4.59985,2470.003,2021-5-01T13:29:20Z
2021-05-01T11:31:13Z,42.805,6.029,13.2980,4.59986,2470.017,2021-5-01T13:32:23Z
2021-05-01T11:34:16Z,42.805,6.029,13.2980,4.59986,2470.007,2021-5-01T13:35:26Z
2021-05-01T11:37:20Z,42.805,6.029,13.2979,4.59986,2470.007,2021-5-01T13:38:29Z
2021-05-01T11:40:23Z,42.805,6.029,13.2980,4.59985,2470.017,2021-5-01T13:41:33Z
2021-05-01T11:43:26Z,42.805,6.029,13.2981,4.59987,2470.017,2021-5-01T13:44:36Z
2021-05-01T11:46:29Z,42.805,6.029,13.2977,4.59986,2469.993,2021-5-01T13:47:39Z
2021-05-01T11:49:32Z,42.805,6.029,13.2981,4.59986,2470.017,2021-5-01T13:50:42Z
2021-05-01T11:52:35Z,42.805,6.029,13.2983,4.59985,2469.97,2021-5-01T13:53:45Z
2021-05-01T11:55:38Z,42.805,6.029,13.2978,4.59985,2469.979,2021-5-01T13:56:48Z
2021-05-01T11:58:41Z,42.805,6.029,13.2982,4.59985,2469.993,2021-5-01T13:59:51Z
2021-05-01T12:01:44Z,42.805,6.029,13.2980,4.59986,2470.017,2021-5-01T14:02:54Z
2021-05-01T12:04:48Z,42.805,6.029,13.2979,4.59986,2469.993,2021-5-01T14:05:57Z
2021-05-01T12:07:51Z,42.805,6.029,13.2982,4.59986,2470.007,2021-5-01T14:09:01Z
2021-05-01T12:10:54Z,42.805,6.029,13.2979,4.59986,2469.97,2021-5-01T14:12:04Z
2021-05-01T12:13:57Z,42.805,6.029,13.2979,4.59985,2469.993,2021-5-01T14:15:07Z
2021-05-01T12:17:00Z,42.805,6.029,13.2978,4.59986,2470.007,2021-5-01T14:18:10Z
2021-05-01T12:20:03Z,42.805,6.029,13.2980,4.59986,2469.97,2021-5-01T14:21:13Z
2021-05-01T12:23:06Z,42.805,6.029,13.2979,4.59986,2469.984,2021-5-01T14:24:16Z
2021-05-01T12:26:09Z,42.805,6.029,13.2976,4.59986,2469.947,2021-5-01T14:27:19Z
2021-05-01T12:29:13Z,42.805,6.029,13.2980,4.59986,2469.947,2021-5-01T14:30:22Z
2021-05-01T12:32:16Z,42.805,6.029,13.2982,4.59986,2469.984,2021-5-01T14:33:26Z
2021-05-01T12:35:19Z,42.805,6.029,13.2980,4.59986,2469.97,2021-5-01T14:36:29Z
2021-05-01T12:38:22Z,42.805,6.029,13.2983,4.59985,2469.97,2021-5-01T14:39:32Z
2021-05-01T12:41:25Z,42.805,6.029,13.2980,4.59986,2469.984,2021-5-01T14:42:35Z
2021-05-01T12:44:28Z,42.805,6.029,13.2979,4.59986,2469.956,2021-5-01T14:45:38Z
2021-05-01T12:47:31Z,42.805,6.029,13.2980,4.59986,2469.947,2021-5-01T14:48:41Z
2021-05-01T12:50:34Z,42.805,6.029,13.2980,4.59986,2470.007,2021-5-01T14:51:44Z
2021-05-01T12:53:38Z,42.805,6.029,13.2981,4.59985,2469.984,2021-5-01T14:54:47Z
2021-05-01T12:56:41Z,42.805,6.029,13.2981,4.59985,2469.933,2021-5-01T14:57:51Z
2021-05-01T12:59:44Z,42.805,6.029,13.2981,4.59986,2469.984,2021-5-01T15:00:54Z
2021-05-01T13:02:47Z,42.805,6.029,13.2978,4.59986,2469.993,2021-5-01T15:03:57Z
2021-05-01T13:05:50Z,42.805,6.029,13.2978,4.59986,2469.984,2021-5-01T15:07:00Z
2021-05-01T13:08:53Z,42.805,6.029,13.2978,4.59987,2469.947,2021-5-01T15:10:03Z
2021-05-01T13:11:56Z,42.805,6.029,13.2982,4.59986,2469.984,2021-5-01T15:13:06Z
2021-05-01T13:14:59Z,42.805,6.029,13.2980,4.59986,2469.947,2021-5-01T15:16:09Z
2021-05-01T13:18:03Z,42.805,6.029,13.2976,4.59986,2469.933,2021-5-01T15:19:12Z
2021-05-01T13:21:06Z,42.805,6.029,13.2980,4.59986,2469.984,2021-5-01T15:22:16Z
2021-05-01T13:24:09Z,42.805,6.029,13.2981,4.59986,2469.984,2021-5-01T15:25:19Z
2021-05-01T13:27:12Z,42.805,6.029,13.2980,4.59986,2469.947,2021-5-01T15:28:22Z
2021-05-01T13:30:15Z,42.805,6.029,13.2980,4.59986,2469.947,2021-5-01T15:31:25Z
2021-05-01T13:33:18Z,42.805,6.029,13.2977,4.59986,2469.96,2021-5-01T15:34:28Z
2021-05-01T13:36:21Z,42.805,6.029,13.2983,4.59986,2469.993,2021-5-01T15:37:31Z
2021-05-01T13:39:24Z,42.805,6.029,13.2982,4.59986,2469.947,2021-5-01T15:40:34Z
2021-05-01T13:42:28Z,42.805,6.029,13.2982,4.59985,2469.933,2021-5-01T15:43:37Z
2021-05-01T13:45:31Z,42.805,6.029,13.2979,4.59986,2469.923,2021-5-01T15:46:41Z
2021-05-01T13:48:34Z,42.805,6.029,13.2980,4.59986,2469.947,2021-5-01T15:49:44Z
2021-05-01T13:51:37Z,42.805,6.029,13.2982,4.59986,2469.947,2021-5-01T15:52:47Z
2021-05-01T13:54:40Z,42.805,6.029,13.2982,4.59986,2469.947,2021-5-01T15:55:50Z
2021-05-01T13:57:43Z,42.805,6.029,13.2982,4.59986,2469.947,2021-5-01T15:58:53Z
2021-05-01T14:00:46Z,42.805,6.029,13.2978,4.59986,2469.937,2021-5-01T16:01:56Z
2021-05-01T14:03:49Z,42.805,6.029,13.2981,4.59986,2469.923,2021-5-01T16:04:59Z
2021-05-01T14:06:53Z,42.805,6.029,13.2979,4.59985,2469.937,2021-5-01T16:08:02Z
2021-05-01T14:09:56Z,42.805,6.029,13.2980,4.59985,2469.937,2021-5-01T16:11:06Z
2021-05-01T14:12:59Z,42.805,6.029,13.2980,4.59986,2469.96,2021-5-01T16:14:09Z
2021-05-01T14:16:02Z,42.805,6.029,13.2981,4.59986,2469.937,2021-5-01T16:17:12Z
2021-05-01T14:19:05Z,42.805,6.029,13.2977,4.59986,2469.937,2021-5-01T16:20:15Z
2021-05-01T14:22:08Z,42.805,6.029,13.2981,4.59986,2469.914,2021-5-01T16:23:18Z
2021-05-01T14:25:11Z,42.805,6.029,13.2979,4.59986,2469.937,2021-5-01T16:26:21Z
2021-05-01T14:28:14Z,42.805,6.029,13.2981,4.59986,2469.923,2021-5-01T16:29:24Z
2021-05-01T14:31:17Z,42.805,6.029,13.2983,4.59986,2469.937,2021-5-01T16:32:27Z
2021-05-01T14:34:21Z,42.805,6.029,13.2982,4.59986,2469.9,2021-5-01T16:35:31Z
2021-05-01T14:37:24Z,42.805,6.029,13.2981,4.59985,2469.923,2021-5-01T16:38:34Z
2021-05-01T14:40:27Z,42.805,6.029,13.2979,4.59986,2469.937,2021-5-01T16:41:37Z
2021-05-01T14:43:30Z,42.805,6.029,13.2981,4.59986,2469.947,2021-5-01T16:44:40Z
2021-05-01T14:46:33Z,42.805,6.029,13.2979,4.59988,2469.947,2021-5-01T16:47:43Z
2021-05-01T14:49:36Z,42.805,6.029,13.2980,4.59986,2469.9,2021-5-01T16:50:46Z
2021-05-01T14:52:39Z,42.805,6.029,13.2976,4.59985,2469.923,2021-5-01T16:53:49Z
2021-05-01T14:55:42Z,42.805,6.029,13.2981,4.59985,2469.923,2021-5-01T16:56:52Z
2021-05-01T14:58:46Z,42.805,6.029,13.2980,4.59987,2469.923,2021-5-01T16:59:56Z
2021-05-01T15:01:49Z,42.805,6.029,13.2982,4.59986,2469.876,2021-5-01T17:02:59Z
2021-05-01T15:04:52Z,42.805,6.029,13.2983,4.59987,2469.914,2021-5-01T17:06:02Z
2021-05-01T15:07:55Z,42.805,6.029,13.2983,4.59986,2469.923,2021-5-01T17:09:05Z
2021-05-01T15:10:58Z,42.805,6.029,13.2980,4.59985,2469.914,2021-5-01T17:12:08Z
2021-05-01T15:14:01Z,42.805,6.029,13.2980,4.59985,2469.923,2021-5-01T17:15:11Z